Regional Weather Roundup
Issued by NWS

Home | Current Version | Previous Version | Text Only | Print | Product List | Glossary On
Versions: 1 2 3 4 5 6 7 8 9 10 11 12 13 14 15 16 17 18 19 20 21 22 23 24 25 26 27 28
000
ASUS44 KJAN 231710
RWRMS

MISSISSIPPI HOURLY WEATHER ROUNDUP
NATIONAL WEATHER SERVICE JACKSON MS
1200 PM CDT TUE MAY 23 2017

NOTE: "FAIR: INDICATES FEW OR NO CLOUDS BELOW 12,000 FEET WITH NO
SIGNIFICANT WEATHER AND/OR OBSTRUCTIONS TO VISIBILITY.

MSZ001>002-007>008-010>013-018>021-025>028-034>036-231800-
NORTHWEST MISSISSIPPI

CITY           SKY/WX    TMP DP  RH WIND       PRES   REMARKS
BATESVILLE     FAIR      73  59  60 CALM      29.77F
CLARKSDALE       N/A     73  57  56 MISG      29.78F
CLEVELAND      PTSUNNY   73  60  65 NW6       29.80R
GREENWOOD      CLOUDY    72  65  78 VRB5      29.77F
GREENVILLE     CLOUDY    72  59  63 NW8       29.80R
OLIVE BRANCH   PTSUNNY  N/A N/A N/A VRB6      29.76F
OXFORD         PTSUNNY   73  57  56 N5        29.79F
TUNICA         CLOUDY    72  59  64 CALM      29.78F
WINONA         CLOUDY    71  66  84 CALM      29.77F
$$

MSZ003>006-009-014>017-022>024-029>033-037>039-231800-
NORTHEAST MISSISSIPPI

CITY           SKY/WX    TMP DP  RH WIND       PRES   REMARKS
COLUMBUS AFB   NOT AVBL
CORINTH        PTSUNNY   75  61  60 CALM      29.77F
STARKVILLE     CLOUDY    70  66  88 CALM      29.78F FOG
TUPELO         CLOUDY    72  62  71 VRB5      29.77F
$$

MSZ040-058-231800-
CENTRAL MISSISSIPPI

CITY           SKY/WX    TMP DP  RH WIND       PRES   REMARKS
JACKSON INTL   CLOUDY    71  65  81 NW5       29.79S
JACKSON HAWKNS CLOUDY    70  65  84 NW8       29.79S
MADISON        CLOUDY    70  64  83 NW7       29.78F
MERIDIAN KEY   LGT RAIN  72  69  90 SW7       29.77S
MERIDIAN NAS   CLOUDY    74  64  71 NW6       29.77S
VICKSBURG VKS  PTSUNNY   73  64  73 NW6       29.78S
$$

MSZ059>079-231800-
SOUTH MISSISSIPPI

CITY           SKY/WX    TMP DP  RH WIND       PRES   REMARKS
COLUMBIA       CLOUDY    75  68  78 CALM      29.79F
HATTIESBURG    CLOUDY    74  69  85 NW5       29.76F
LAUREL         CLOUDY    71  71 100 CALM      29.77F
MCCOMB         CLOUDY    73  66  78 NW7       29.79R
NATCHEZ        CLOUDY    71  66  84 NW7       29.83R
PINE BELT      NOT AVBL
$$

MSZ080>082-231800-
COASTAL MISSISSIPPI

CITY           SKY/WX    TMP DP  RH WIND       PRES   REMARKS
BAY ST LOUIS   PTSUNNY   81  72  74 SW9G18    29.76S
BILOXI         NOT AVBL
PASCAGOULA     MOSUNNY   80  74  81 SW7       29.76S
GULFPORT       PTSUNNY   82  72  71 W9G18     29.75S
$$

LAZ007>009-015>016-023>026-231800-
NORTHEAST LOUISIANA

CITY           SKY/WX    TMP DP  RH WIND       PRES   REMARKS
BASTROP        FAIR      70  64  83 W7        29.84R
TALLULAH/VBURG CLOUDY    71  63  75 N7        29.81S
VIDALIA        CLOUDY    71  66  84 NW6       29.82R
$$




USA.gov is the U.S. government's official web portal to all federal, state and local government web resources and services.